Cloud_Cover
20 20 8 8 8 8 8 0 0 0 8 8 8 8 8 8 8 8 0 0 0 0 0 0 0 0 0 0 0 0 0 0 0 0 0 0 0 0 0 0 12 24 24 24 24 24 12 12 44 80 92 92 92 92 92 92 92 92 92 92 92 92 92 92 92 92 92 92 92 92 92 92 92 92 92 92 92 92 92 88 88 80 88 92 88 76
12 8 8 8 8 8 0 0 0 8 8 8 8 0 0 0 0 0 0 0 0 0 0 0 0 0 0 0 0 0 0 0 0 0 0 0 0 0 0 0 0 0 8 0 20 32 32 36 48 68 80 92 92 92 92 92 92 92 92 92 92 92 92 92 92 92 92 92 92 92 92 92 92 92 100 92 92 88 88 88 88 88 80 92 88 80
8 12 12 8 8 8 12 8 0 0 0 0 0 0 0 0 0 0 0 0 0 0 0 0 0 0 0 0 0 0 0 0 0 0 0 0 0 0 0 0 0 0 0 0 0 8 32 36 44 56 56 80 88 92 92 92 92 92 92 92 92 92 92 92 92 92 92 92 92 92 92 92 100 92 92 92 92 92 88 92 92 88 88 88 92 88
12 12 12 8 8 8 8 8 0 0 0 0 0 0 0 0 0 0 0 0 0 0 0 0 0 0 0 0 0 0 0 0 0 0 0 0 0 0 0 0 0 0 0 0 0 0 0 8 24 44 44 56 68 80 92 88 88 92 92 92 92 92 92 92 92 92 92 92 92 92 92 92 92 92 92 92 92 92 92 92 92 88 88 88 92 92
8 8 0 0 0 0 0 0 0 0 0 0 0 0 0 0 0 0 0 0 0 0 0 0 0 0 0 0 0 0 0 0 0 0 0 0 0 0 0 0 0 0 0 0 0 0 0 0 8 12 12 36 56 76 92 76 76 80 80 92 92 88 92 92 92 92 92 92 92 92 92 92 92 92 92 92 92 92 88 92 92 92 88 88 92 92
0 0 0 0 0 0 0 0 0 0 0 0 0 0 0 0 0 0 0 0 0 0 0 0 0 0 0 0 0 0 0 0 0 0 0 0 0 0 0 0 0 0 0 0 0 0 0 0 0 0 0 8 24 44 56 76 80 80 80 80 80 76 80 88 88 92 92 92 92 92 92 92 92 92 92 92 92 92 88 88 88 88 92 92 92 92
0 0 0 0 0 0 0 0 0 0 0 0 0 0 0 0 0 0 0 0 0 0 0 0 0 0 0 0 0 0 0 0 0 0 0 0 0 0 0 0 0 0 0 0 0 0 0 0 0 0 0 0 0 0 0 36 48 56 76 80 88 88 80 88 88 88 92 92 88 88 88 88 88 80 88 76 76 80 80 88 88 88 88 92 88 88
0 0 0 0 0 0 0 0 0 0 0 0 0 0 0 0 0 0 0 0 0 0 0 0 0 0 0 0 0 0 0 0 0 0 0 0 0 0 0 0 0 0 0 0 0 0 0 0 0 0 0 8 8 0 0 0 0 0 20 76 92 92 92 88 88 88 92 92 88 88 80 76 68 68 68 64 64 68 76 80 88 88 88 88 88 88
0 0 0 0 0 0 0 0 0 0 0 0 0 0 0 0 0 0 0 0 0 0 0 0 0 0 0 0 0 0 0 0 0 0 0 0 0 0 0 0 0 0 0 0 0 0 0 0 0 0 0 8 0 0 0 12 8 0 0 32 64 80 76 80 76 68 76 92 92 92 88 76 68 68 68 68 68 68 76 76 80 80 80 80 88 88
0 0 0 0 0 0 0 0 0 0 0 0 0 0 0 0 0 0 0 0 0 0 0 0 0 0 0 0 0 0 0 0 0 0 0 0 0 0 0 0 0 0 0 0 0 0 0 0 0 0 0 0 0 0 0 8 12 12 8 0 12 24 24 32 32 32 44 64 68 68 76 68 64 64 68 64 68 68 68 68 76 80 88 88 80 80
0 0 0 0 0 0 0 0 0 0 0 0 0 0 0 0 0 0 0 0 0 0 0 0 0 0 0 0 0 0 0 0 0 0 0 0 0 0 0 0 0 0 0 0 0 0 0 0 0 0 0 0 0 0 0 0 0 8 0 12 8 0 0 0 8 8 12 20 20 20 24 36 32 32 44 32 44 48 44 56 68 80 92 92 92 88
32 44 12 0 0 0 0 0 0 0 0 0 0 0 0 0 0 0 0 0 0 0 0 0 0 0 0 0 0 0 0 0 0 0 0 0 0 0 0 0 0 0 0 0 0 0 0 0 0 0 0 0 0 0 0 0 0 0 0 0 8 12 12 8 0 0 0 0 0 0 0 8 8 0 8 0 8 12 20 12 32 44 48 68 76 76
76 80 68 64 44 20 0 0 0 0 0 8 8 0 0 0 0 0 0 0 0 0 0 0 0 0 0 0 0 0 0 0 0 0 0 0 0 0 0 0 0 0 0 0 0 0 0 0 0 0 0 0 0 0 0 0 0 0 0 0 0 0 0 0 0 8 12 8 8 0 0 0 0 0 0 0 0 0 0 0 8 8 8 36 44 56
80 80 80 80 76 68 64 32 12 0 20 24 12 0 0 0 0 0 0 0 0 0 0 0 0 0 0 0 0 0 0 0 0 0 0 0 0 0 0 0 0 0 0 0 0 0 0 0 0 0 0 0 0 0 0 0 0 0 0 0 0 0 0 0 0 8 12 24 20 12 12 0 0 0 0 0 0 0 0 0 0 0 0 8 8 12
80 80 80 80 56 44 76 44 48 68 68 36 12 0 0 0 20 32 8 0 0 0 0 0 0 0 0 0 0 0 0 0 0 0 0 0 0 0 0 0 0 0 0 0 0 0 0 0 0 0 0 0 0 0 0 0 0 0 0 0 0 0 0 0 0 8 0 8 24 48 68 32 20 12 0 8 8 0 0 0 0 0 0 0 0 0
56 24 12 20 20 24 32 68 48 32 76 64 68 56 8 56 76 68 56 20 8 20 68 48 20 0 0 0 12 20 0 0 0 0 0 0 0 0 0 0 0 0 0 0 0 0 0 0 0 0 0 0 0 0 0 0 0 0 0 0 0 0 0 0 0 0 0 0 24 44 36 64 48 32 44 24 32 32 0 0 0 0 0 0 0 0
20 0 0 0 0 0 0 8 0 8 32 32 56 80 76 80 80 80 80 76 76 76 80 80 48 32 76 24 20 36 48 20 0 0 0 8 0 0 0 0 0 0 0 0 0 0 0 0 0 0 0 0 0 0 0 0 0 0 0 0 0 0 0 0 0 0 0 64 80 80 80 68 76 64 8 20 24 32 24 44 24 0 8 0 0 0
0 0 0 0 0 0 0 0 0 12 32 68 80 80 80 80 80 80 80 80 80 80 80 80 80 80 80 80 80 88 88 24 20 32 44 64 44 20 0 0 0 0 0 0 0 0 0 0 0 0 0 0 0 0 0 0 0 0 0 0 0 0 0 0 0 20 88 88 88 68 32 36 44 56 88 56 44 36 20 68 64 32 24 12 8 0
0 0 0 0 0 0 0 8 24 48 80 80 80 80 80 88 80 76 44 36 44 48 48 76 80 80 80 80 88 88 88 56 68 88 80 68 32 0 0 0 0 0 0 0 0 0 0 0 0 0 0 0 0 0 0 0 0 0 0 0 0 0 0 0 0 24 88 80 64 64 88 88 88 80 44 80 44 12 44 80 88 76 44 32 20 8
0 0 0 0 0 20 80 24 44 80 80 80 88 80 80 80 80 80 80 80 76 68 80 80 80 80 80 80 88 80 64 80 88 80 80 32 12 8 0 20 56 68 36 24 20 12 0 0 0 0 0 0 0 0 0 0 0 0 0 0 0 0 0 0 8 24 68 68 64 48 24 76 88 88 88 88 76 68 88 68 76 88 88 64 48 44
0 0 0 0 44 80 80 68 76 80 88 88 80 80 80 80 80 80 80 80 80 80 80 80 80 80 80 80 80 80 76 68 76 80 76 48 20 0 0 36 68 76 44 64 36 12 0 0 0 0 0 0 0 0 0 0 0 0 0 0 0 0 0 0 0 20 76 88 64 48 88 88 68 48 56 48 36 24 32 24 20 32 68 88 88 80
0 8 8 56 80 80 80 80 80 80 88 80 80 80 80 80 80 80 80 80 80 76 76 76 56 48 76 56 48 64 76 20 0 0 0 32 24 12 20 0 20 56 88 24 12 12 0 0 0 0 0 0 0 0 0 0 0 0 0 0 0 0 0 0 20 48 88 88 88 88 80 76 68 56 48 32 24 24 12 24 24 32 44 76 88 88
44 80 80 80 80 80 80 80 80 80 76 80 80 80 80 80 80 80 80 80 68 48 48 44 32 20 20 8 0 0 0 0 0 0 20 8 0 0 0 0 0 12 68 12 0 0 12 12 8 0 0 0 0 0 0 0 0 0 0 0 0 0 0 0 0 12 48 68 76 64 20 44 68 68 12 12 12 20 20 24 36 44 12 64 68 64
80 80 80 80 80 80 80 80 80 76 44 76 80 80 80 80 80 80 80 76 76 80 80 24 32 36 0 0 0 0 0 0 0 0 0 0 0 0 0 0 0 0 0 0 0 0 8 0 0 0 0 0 0 0 0 0 0 0 0 0 0 0 0 0 12 20 8 0 0 0 12 32 36 32 0 0 12 20 24 24 32 32 24 32 56 88
76 76 80 80 80 76 64 68 76 80 80 68 64 64 56 68 80 80 76 44 48 68 56 12 0 0 0 0 0 0 0 0 0 0 0 0 8 8 0 0 0 0 0 0 0 0 0 8 8 0 0 8 8 8 0 0 0 0 0 0 0 0 0 8 8 20 44 24 20 32 68 56 44 32 12 8 12 24 36 32 44 48 36 56 48 48
36 36 64 64 56 36 0 8 32 56 56 12 0 8 20 44 68 76 56 68 56 32 20 8 0 0 20 12 0 0 0 0 0 0 0 24 44 44 12 24 32 24 24 24 24 20 12 44 32 12 0 36 36 20 0 0 0 0 0 0 0 12 20 24 32 36 64 36 48 44 0 20 56 76 44 12 0 8 36 44 64 76 64 32 12 20
0 0 0 0 0 0 0 0 0 0 0 0 8 20 32 68 80 76 76 48 36 32 48 20 12 36 76 32 24 24 20 12 12 12 12 64 80 76 64 56 68 80 80 80 80 80 56 68 56 32 24 32 20 0 0 0 0 0 0 0 12 36 48 12 8 0 0 0 0 0 0 8 36 64 44 20 8 0 12 36 32 24 24 8 0 0
0 0 0 0 0 0 0 0 0 0 0 0 12 44 80 80 76 76 76 48 44 48 76 32 44 76 76 36 36 48 48 48 36 32 44 64 76 80 80 80 80 80 80 80 76 68 76 56 36 36 44 12 0 0 0 0 0 0 0 0 8 12 8 0 0 0 0 0 0 0 0 0 12 32 20 24 12 0 0 0 0 0 0 0 0 0
0 0 0 0 0 0 0 0 0 0 0 0 8 36 80 56 44 44 44 36 56 76 76 48 56 76 76 76 48 20 32 44 36 32 64 44 36 44 44 76 80 80 80 80 64 48 48 24 12 8 12 0 0 0 0 0 0 0 0 0 0 0 0 0 0 0 0 0 0 0 0 0 0 0 0 0 0 0 0 0 0 0 0 0 0 0
0 0 0 0 0 0 0 0 0 0 0 0 0 12 44 8 0 0 0 12 44 76 76 76 76 76 76 76 64 48 32 8 0 12 36 36 36 32 36 68 80 80 80 80 80 64 20 0 0 0 0 0 0 0 0 0 0 0 0 0 0 0 0 0 0 0 0 0 0 0 0 0 0 0 0 0 8 8 20 12 20 24 24 8 8 12
0 0 0 0 0 0 0 0 0 0 0 0 0 0 0 0 0 0 8 44 68 76 76 76 76 76 76 76 76 76 76 32 20 20 48 76 80 80 80 80 76 68 64 76 80 68 32 12 0 0 0 0 0 0 0 0 0 0 0 0 0 0 0 0 0 0 0 0 0 0 0 0 0 0 0 8 12 24 44 44 48 68 76 48 48 44
0 0 0 0 0 0 0 0 0 0 0 0 0 0 0 0 0 0 12 48 68 76 76 76 76 76 76 76 76 76 76 44 44 64 76 76 80 80 80 80 76 68 64 76 80 76 76 56 24 0 0 12 8 0 0 0 0 0 0 0 0 0 0 0 0 0 0 0 0 0 0 0 0 0 0 0 12 32 48 56 68 80 88 88 88 68
0 0 0 0 0 0 0 0 0 0 0 0 0 8 0 8 12 24 48 64 68 76 76 76 76 76 76 76 76 68 64 56 68 80 80 80 80 76 80 80 80 80 80 80 80 80 76 76 64 36 8 32 24 0 0 0 0 0 0 0 0 0 0 0 0 0 0 0 0 0 0 0 0 0 0 0 8 12 20 64 68 68 88 80 80 80
0 0 0 0 0 0 0 0 0 0 0 12 32 48 48 48 44 44 56 76 80 80 80 76 76 76 68 76 76 68 64 76 80 80 80 80 80 76 76 76 76 76 80 76 76 80 76 76 76 68 48 36 24 24 24 8 8 8 0 0 0 0 0 0 0 0 0 0 0 0 0 0 0 0 0 0 0 0 0 20 32 36 32 68 88 88
20 8 12 0 0 0 0 8 8 8 12 48 68 80 80 80 76 68 68 76 76 68 76 76 76 76 76 76 68 68 68 36 56 80 80 80 80 76 76 76 76 76 76 76 76 76 76 76 76 76 76 64 44 32 20 20 20 12 0 0 0 0 0 0 0 0 0 0 0 0 0 0 0 0 0 0 0 0 0 0 8 12 32 36 64 88
20 12 20 8 8 8 8 12 24 36 56 44 48 68 80 80 80 80 80 80 48 20 36 44 48 64 68 76 76 68 44 24 48 80 80 80 80 76 76 76 76 76 76 76 76 76 76 76 76 80 76 76 68 64 56 24 32 44 32 12 8 8 0 8 0 0 0 0 0 0 0 0 0 0 0 0 0 0 0 0 0 0 20 48 56 68
48 36 32 20 36 56 56 36 32 36 56 20 20 44 80 48 44 36 24 20 12 8 12 12 24 32 24 56 68 76 68 64 44 36 48 76 80 80 76 76 76 80 76 76 76 76 76 76 76 76 76 76 76 76 76 32 44 68 36 24 20 20 8 8 12 8 0 0 0 0 0 0 0 0 0 0 0 8 32 44 56 64 56 64 48 36
68 56 36 56 68 64 20 12 12 24 68 64 48 36 36 24 24 24 20 20 20 20 12 8 8 8 0 36 64 68 48 24 12 12 32 68 80 80 80 76 76 76 80 80 80 76 76 76 76 76 76 76 76 80 80 44 32 36 76 44 36 32 12 8 8 8 0 0 0 0 0 48 48 24 0 0 0 0 8 8 12 20 36 64 56 48
76 76 68 76 76 68 64 36 20 24 56 32 24 20 20 24 32 44 56 36 36 36 20 12 8 0 0 24 36 48 76 24 12 32 68 76 80 80 80 76 76 76 80 80 80 80 76 76 76 76 76 76 76 76 80 76 68 76 80 76 56 48 68 48 44 44 36 12 24 48 48 32 24 20 8 8 8 20 56 32 12 8 32 36 44 44
76 76 68 76 76 76 76 68 68 56 24 20 12 20 36 64 48 32 36 64 76 76 68 36 20 20 32 64 76 76 80 56 36 24 32 48 64 80 80 80 80 80 76 80 80 80 80 80 76 76 80 76 76 76 76 76 80 80 80 56 64 64 36 68 64 44 32 24 32 24 8 8 12 24 20 48 64 68 64 76 48 32 36 68 80 76
76 76 76 36 48 76 76 76 48 32 76 56 36 32 36 32 48 56 12 48 68 76 76 48 36 32 12 64 80 80 80 44 24 24 32 44 64 76 80 80 80 80 80 76 80 80 80 76 76 76 76 80 76 76 76 76 80 80 80 76 76 64 20 68 80 80 80 56 32 12 24 64 64 64 76 80 80 76 56 76 56 44 80 80 80 80
76 76 76 76 48 36 76 68 68 76 76 76 76 76 76 76 76 76 76 76 76 76 76 76 44 12 8 8 44 80 80 44 24 24 32 44 64 76 76 80 80 80 80 76 76 76 80 80 76 76 76 76 76 80 76 64 68 80 80 80 76 76 76 56 56 76 80 56 44 36 48 76 80 80 80 80 80 88 80 88 80 80 88 88 80 80
76 76 76 36 48 76 76 76 76 76 76 76 76 76 76 76 76 76 76 76 56 44 64 64 68 76 76 56 64 76 76 76 80 76 68 44 48 64 80 68 76 80 80 80 80 76 76 76 76 76 76 76 76 76 76 76 76 80 80 80 80 80 76 44 20 24 80 32 48 80 80 80 80 80 80 80 80 80 88 88 88 88 88 88 88 88
64 56 76 76 76 76 76 76 76 76 76 76 76 76 76 64 68 80 76 76 44 32 76 76 76 76 76 76 64 36 8 48 68 76 68 64 64 64 64 64 76 80 80 80 80 76 76 76 76 76 80 80 80 76 76 76 76 76 80 80 80 76 76 76 56 44 80 56 32 36 80 64 68 76 36 76 76 76 80 80 64 56 88 80 80 88
76 76 76 76 76 76 76 76 76 76 76 76 76 76 76 76 80 80 76 76 76 76 76 76 76 76 68 68 76 64 24 64 76 68 80 68 76 76 64 76 80 80 80 80 80 80 76 76 76 76 76 80 80 80 76 76 76 68 68 76 80 80 80 76 80 80 80 36 48 64 36 56 76 80 80 80 80 80 80 80 80 80 80 88 88 88
76 76 76 76 76 76 76 76 76 76 76 76 76 76 68 56 56 68 76 76 76 76 76 76 76 76 68 68 76 76 76 76 76 76 80 80 68 64 80 80 80 80 80 80 80 80 80 80 80 80 76 80 76 76 76 76 76 64 36 64 76 76 80 80 80 80 80 80 44 12 20 64 80 80 80 80 80 80 80 88 80 80 80 88 88 88
76 76 76 76 76 76 76 76 76 76 76 76 76 68 36 68 80 80 76 80 80 80 76 80 76 76 76 76 76 76 76 68 68 68 76 76 76 80 80 80 80 80 80 80 76 76 76 80 80 80 80 76 76 76 76 76 76 68 36 36 56 76 76 76 76 80 80 80 48 32 48 76 80 80 80 80 80 80 88 80 80 80 88 88 88 88
76 76 76 76 76 76 76 76 76 76 76 76 76 76 76 80 80 80 76 80 80 80 80 76 76 76 76 76 76 76 76 76 56 44 76 56 56 68 68 76 80 80 80 80 80 76 48 64 68 76 88 88 80 76 68 68 76 76 76 68 68 76 76 76 76 80 80 80 76 68 80 80 80 80 80 80 80 80 80 80 80 80 88 88 88 88
76 76 76 76 76 76 76 76 76 76 76 76 76 76 76 80 80 80 80 80 80 80 76 76 76 76 76 76 76 80 76 76 76 76 76 68 56 36 36 68 76 76 80 76 76 76 56 36 32 48 92 92 88 68 48 56 64 76 76 76 76 76 76 76 76 80 80 80 80 80 80 80 80 80 80 80 76 76 80 80 80 80 80 88 88 88
76 76 80 80 80 76 76 76 76 76 76 76 76 76 80 80 80 80 80 80 80 80 80 76 76 76 76 76 76 76 76 76 76 76 76 76 76 76 76 76 76 76 68 68 76 76 80 48 36 44 76 88 76 56 48 32 44 64 76 76 76 76 76 76 76 80 80 80 80 80 80 80 80 80 80 80 76 76 76 76 68 76 80 88 88 88
76 76 80 80 80 80 76 76 80 80 80 76 76 80 80 76 76 80 80 80 80 80 80 80 80 80 80 76 76 76 76 76 76 76 76 76 80 76 68 76 80 76 64 76 76 76 76 64 48 44 36 64 44 12 0 36 32 32 80 76 76 68 76 76 68 56 64 76 80 80 80 80 80 80 80 80 80 80 76 64 64 68 80 80 88 88